Location: Cambroso
(45.2833°N, 12.0850°E)
Time: 15:38:33
(UTC+00:00)

Cosmos 1455 - Pass Details

Date: 21 January 2021
Orbit: 499 x 520 km, 82.5° (Epoch: 26 February)

Event Time Altitude Azimuth Distance (km) Brightness Sun altitude
Rises 17:04:06 0° 360° (N) 2,629 5.6 -10.7°
Reaches altitude 10° 17:06:23 10° 10° (N) 1,742 4.6 -11.1°
Maximum altitude 17:09:52 32° 75° (ENE) 895 2.8 -11.6°
Drops below altitude 10° 17:13:19 10° 140° (SE) 1,740 4.6 -12.2°
Sets 17:15:36 0° 151° (SSE) 2,625 5.6 -12.6°
